Kendall, FL

4:31 PM EDT on August 20, 2017 (GMT -0400)
Kendall-Tamiami Executive

Weather History for KTMB - January, 2014

Change the Weather History Date:

Saturday, January 25, 2014

  Actual Average Record
Temperature  
Mean Temperature 63 °F -  
Max Temperature 75 °F 76 °F 84 °F (1997)
Min Temperature 51 °F 54 °F 39 °F (2001)
Degree Days  
Heating Degree Days 2    
Growing Degree Days 13 (Base 50)    
Moisture  
Dew Point 56 °F    
Average Humidity 81    
Maximum Humidity 100    
Minimum Humidity 57    
Precipitation  
Precipitation 0.00 in - - ()
Sea Level Pressure  
Sea Level Pressure 30.14 in    
Wind  
Wind Speed 5 mph (West)    
Max Wind Speed 9 mph    
Max Gust Speed -    
Visibility 9 miles    
Events      
Averages and records for this station are not official NWS values.
T = Trace of Precipitation, MM = Missing Value Source: NWS Daily Summary

Daily Weather History Graph

Daily Weather History Graph

Search for Another Location

Airport or City:

Trip Planner

Search our weather history database for the weather conditions in past years. The results will help you decide how hot, cold, wet, or windy it might be!

Date:

Astronomy

Jan. 25, 2014 Rise Set
Actual Time 7:07 AM EST 6:00 PM EST
Civil Twilight 6:43 AM EST 6:24 PM EST
Nautical Twilight 6:15 AM EST 6:52 PM EST
Astronomical Twilight 5:48 AM EST 7:20 PM EST
Moon 1:41 AM EST (1/25) 12:58 PM EST (1/25)
Length of Visible Light 11h 41m
Length of Day
10h 52m
Waning Crescent, 34% of the Moon is Illuminated
Jan 25
Waning Crescent
Jan 30
New
Feb 6
First Quarter
Feb 14
Full
Feb 22
Last Quarter

Hourly Weather History & Observations

Time (EST) Temp. Dew Point Humidity Pressure Visibility Wind Dir Wind Speed Gust Speed Precip Events Conditions
12:53 AM 54.0 °F 51.1 °F 90% 30.22 in 10.0 mi North 6.9 mph - N/A   Clear
1:53 AM 53.1 °F 50.0 °F 89% 30.21 in 10.0 mi North 6.9 mph - N/A   Clear
2:53 AM 52.0 °F 50.0 °F 93% 30.20 in 10.0 mi NNW 5.8 mph - N/A   Partly Cloudy
3:53 AM 52.0 °F 48.9 °F 89% 30.19 in 10.0 mi NNW 6.9 mph - N/A   Clear
4:53 AM 51.1 °F 48.9 °F 92% 30.18 in 10.0 mi North 4.6 mph - N/A   Clear
5:53 AM 51.1 °F 48.9 °F 92% 30.17 in 10.0 mi Calm Calm - N/A   Clear
6:53 AM 51.1 °F 48.9 °F 92% 30.18 in 10.0 mi NW 3.5 mph - N/A   Clear
7:53 AM 54.0 °F 52.0 °F 93% 30.18 in 10.0 mi Calm Calm - N/A   Clear
8:53 AM 61.0 °F 54.0 °F 78% 30.19 in 10.0 mi NNE 3.5 mph - N/A   Clear
9:53 AM 68.0 °F 57.0 °F 68% 30.20 in 10.0 mi NNE 4.6 mph - N/A   Clear
10:53 AM 72.0 °F 59.0 °F 64% 30.18 in 10.0 mi Variable 4.6 mph - N/A   Clear
11:53 AM 75.0 °F 59.0 °F 57% 30.15 in 10.0 mi South 9.2 mph - N/A   Mostly Cloudy
12:53 PM 73.9 °F 59.0 °F 59% 30.12 in 10.0 mi East 3.5 mph - N/A   Overcast
1:53 PM 73.9 °F 59.0 °F 59% 30.08 in 10.0 mi SE 4.6 mph - N/A   Mostly Cloudy
2:53 PM 75.9 °F 60.1 °F 58% 30.07 in 10.0 mi SSE 9.2 mph - N/A   Partly Cloudy
3:53 PM 73.9 °F 60.1 °F 62% 30.06 in 10.0 mi South 8.1 mph - N/A   Partly Cloudy
4:53 PM 72.0 °F 60.1 °F 66% 30.07 in 10.0 mi South 8.1 mph - N/A   Overcast
5:53 PM 72.0 °F 61.0 °F 68% 30.07 in 10.0 mi South 6.9 mph - N/A   Overcast
6:53 PM 69.1 °F 61.0 °F 75% 30.08 in 10.0 mi South 4.6 mph - N/A   Clear
7:53 PM 66.9 °F 60.1 °F 79% 30.09 in 10.0 mi SSW 5.8 mph - N/A   Clear
8:53 PM 62.1 °F 57.9 °F 86% 30.09 in 10.0 mi West 4.6 mph - N/A   Clear
9:53 PM 59.0 °F 57.9 °F 96% 30.10 in 9.0 mi Calm Calm - N/A   Clear
10:53 PM 57.9 °F 57.0 °F 97% 30.11 in 6.0 mi Calm Calm - N/A   Clear
11:30 PM 57.9 °F 57.9 °F 100% 30.10 in 1.8 mi WNW 3.5 mph - N/A   Clear
11:41 PM 57.9 °F 57.0 °F 97% 30.11 in 3.0 mi WNW 5.8 mph - N/A   Clear
11:53 PM 57.0 °F 57.0 °F 100% 30.11 in 5.0 mi WNW 3.5 mph - N/A   Clear